FREGAT DEB, 45872

Orbit data source: Space-Track

FREGAT DEB, 45872 is space debris originally from a launch on Mon, 18 Jul 2011 UTC launched from the Tyuratam Missile And Space Complex (TTMTR). Debris objects in space refer to the collection of defunct objects orbiting the Earth. Examples of debris include non-operational satellites, rocket bodies, and fragments generated from explosions, collisions, or faulty payload assembly.

Loading next visibility...
FREGAT DEB details
Identifier
45872, 2011-037CW
Orbit
Active
Last TLE update18 hours ago
Origin
Flag of CISVVKO VKS (CIS)
ManufacturerLavochkin
MissionSpacecraft
Bus & MotorUnknown
MassUnknown
Launch date (UTC)
2011-07-18 (13 years ago)
Launch vehicleUnknown
Launch site
Tyuratam Missile And Space Complex (TTMTR)
Object type
Payload
Rocket body
Debris
Shape & HBRUnknown
Radar Cross SectionSmall (<0.1 m²)

Expand to show TLE details & history

TLE from 18 hours ago
0 FREGAT DEB
1 45872U 11037CW  24346.16060774  .00044627  00000-0  11224+0 0  9990
2 45872  51.3746 153.8768 1804617 137.7836 237.7020 10.65889998173458
Epoch: 2024-12-11T03:51Z
Definitive object data (Epoch: 2024-12-11T03:51:16.508Z)
Latitude-0°
Longitude15.69874°
Altitude3,359.898 km
Speed6.015 km/s
True Right ascension10h 15m 30s
True Declination0° 00' 00"
Sunlit
Object was in daylight at TLE epoch
Visualization TLE readout
Latitude-1.85858°
Longitude12.55286°
Altitude3,443.755 km
Speed5.957 km/s
Apparent Right ascension09h 27m 02s
Apparent Declination-17° 00' 10"
Sunlit
Object is in daylight
Visualization observer readout
Local Sidereal Time20:14:12
Azimuth320.196° NNW
Elevation-62.173°
Doppler factor1
Orbital elements
Apogee altitude3,917.852 km
Perigee altitude769.878 km
Semi-major axis8,722.002 km
Eccentricity0.1804617
Inclination51.3746°
RAAN153.8768°
Arg. of periapsis137.7836°
True anomaly222.29326°
Mean anomaly237.702°
Eccentric anomaly229.8041°
Mean motion2.66452 °/min
BSTAR0.11224
Orbital period135.11 mins
Loading maneuver chart data...
Loading historical data...
Loading historical data...
Loading historical data...
Loading historical data...
Loading historical data...
Loading historical data...
Loading historical data...

FREGAT DEB Visibility forecast

Observer location: undefined°, undefined

Span
Click to sort rows by Start time (UTC) header in descending order
Start Az.
Max El. time (UTC)
Max El. Az.
Max El.
End time (UTC)
End Az.
7 mins2024-12-11 22:34:17.052Z277.665° WNW2024-12-11 22:37:17.052Z240.326° WSW18.361°2024-12-11 22:41:17.052Z186.943° SSW
20 mins2024-12-12 11:23:17.052Z170.149° S2024-12-12 11:35:17.052Z125.254° SE23.913°2024-12-12 11:43:17.052Z80.733° E
23 mins2024-12-12 13:43:17.052Z221.116° SW2024-12-12 13:58:17.052Z118.563° SE44.227°2024-12-12 14:06:17.052Z56.045° ENE
16 mins2024-12-12 16:10:17.052Z269.029° W2024-12-12 16:20:17.052Z333.602° NNW35.564°2024-12-12 16:26:17.052Z47.195° ENE
10 mins2024-12-12 18:38:17.052Z309.629° NW2024-12-12 18:43:17.052Z359.228° N29.633°2024-12-12 18:48:17.052Z72.89° E
9 mins2024-12-12 21:01:17.052Z301.497° NW2024-12-12 21:05:17.052Z237.48° WSW42.989°2024-12-12 21:10:17.052Z138.511° SSE
|